Location: *
(53.8167°N, 13.6167°E)
Time: 20:02:49
(UTC+00:00)

Daily predictions for brighter satellites

Satellite Brightness Start Highest point End
(mag) Time Altitude Azimuth Time Altitude Azimuth Time Altitude Azimuth
STARLINK-1192 3.7 18:23:26 10° W 18:27:35 80° S 18:31:45 10° E
ARGOS 3.2 18:23:06 10° SSE 18:28:30 81° ENE 18:33:54 10° NNW
IRIDIUM 103 4.4 18:23:31 10° N 18:28:47 84° E 18:34:01 10° S
SL-16 R/B 3.4 18:25:16 10° WSW 18:30:44 49° NW 18:36:15 10° NNE
Cosmos 1726 Rocket 4.1 18:27:01 10° SSE 18:31:06 38° E 18:35:14 10° NNE
FREGAT/IRIS 2.4 18:29:01 10° SSE 18:31:44 82° WSW 18:34:29 10° NNW
STARLINK-1244 3.7 18:28:24 10° W 18:32:33 80° S 18:36:43 10° E
Cosmos 1825 Rocket 3.6 18:29:47 10° N 18:34:13 89° E 18:38:35 10° S
Cosmos 2154 Rocket 4.1 18:29:13 10° N 18:35:34 64° ENE 18:41:50 10° SSE
ERBS 2.7 18:32:31 10° WNW 18:35:52 58° NNE 18:39:12 10° E
Resurs 01 Rocket 2.4 18:31:55 10° SE 18:35:56 35° ENE 18:39:58 10° N
ATLAS CENTAUR R/B 3.3 18:33:01 10° NW 18:36:06 20° NNE 18:39:03 10° ENE
Intercosmos 24 Rocket 4.4 18:31:56 10° S 18:36:27 89° E 18:40:05 10° NNE
APEX 4.5 18:29:39 10° NW 18:36:31 89° WSW 18:42:10 10° SSE
STARLINK-1138 3.6 18:33:23 10° W 18:37:32 79° S 18:41:42 10° E
Nadezhda 1 Rocket 4.3 18:31:46 10° SSE 18:37:52 50° E 18:43:56 10° NNE
USA 186 2.1 18:36:55 10° S 18:40:12 68° WSW 18:43:20 10° NNW
Cosmos 921 Rocket 3.2 18:36:19 10° NNW 18:40:26 50° ENE 18:44:31 10° SE
STARLINK-1143 3.6 18:38:21 10° W 18:42:30 78° S 18:46:36 10° ESE
STARLINK-1234 3.5 18:42:00 10° W 18:44:57 45° SSW 18:47:39 12° SE
STARLINK-1233 3.3 18:41:55 10° W 18:45:00 53° SSW 18:47:47 12° ESE
Cosmos 1980 Rocket 4.1 18:41:15 10° NNW 18:45:07 18° NNE 18:48:58 10° ENE
STARLINK-1212 3.3 18:42:23 10° W 18:45:27 53° SSW 18:48:13 12° ESE
STARLINK-1105 3.3 18:42:49 10° W 18:45:54 53° SSW 18:48:40 12° ESE
STARLINK-1209 3.5 18:43:10 10° W 18:46:06 43° SSW 18:48:45 12° SE
Cosmos 407 Rocket 3.9 18:41:36 10° S 18:46:19 38° ESE 18:51:03 10° NE
STARLINK-1206 3.3 18:43:18 10° W 18:46:22 52° SSW 18:49:04 12° ESE
STARLINK-1247 3.3 18:43:45 10° W 18:46:48 52° SSW 18:49:30 13° ESE
STARLINK-1227 3.3 18:44:10 10° W 18:47:14 52° SSW 18:49:57 13° ESE
STARLINK-1241 3.6 18:43:22 10° W 18:47:31 77° S 18:51:25 12° ESE
STARLINK-1218 3.3 18:44:39 10° W 18:47:43 52° SSW 18:50:22 13° ESE
Cosmos 1758 Rocket 4.2 18:43:41 10° NNW 18:47:58 59° W 18:52:12 10° S
STARLINK-1226 3.3 18:45:06 10° W 18:48:09 52° SSW 18:50:49 13° ESE
STARLINK-1254 3.3 18:45:31 10° W 18:48:36 52° SSW 18:51:15 13° ESE
STARLINK-1215 3.3 18:46:00 10° W 18:49:04 51° SSW 18:51:40 13° ESE
STARLINK-1231 3.3 18:46:27 10° W 18:49:30 51° SSW 18:52:06 13° ESE
Cosmos 2228 3.0 18:45:31 10° S 18:49:46 63° E 18:54:06 10° NNE
STARLINK-1232 3.3 18:47:22 10° W 18:50:25 50° SSW 18:52:59 13° SE
Cosmos 1461 3.3 18:46:17 10° NW 18:50:46 74° SW 18:55:23 10° SE
STARLINK-1217 3.3 18:47:49 10° W 18:50:51 50° SSW 18:53:24 14° SE
STARLINK-1208 3.4 18:48:13 10° W 18:51:17 50° SSW 18:53:51 14° SE
SPOT 3 Rocket 3.6 18:46:18 10° SSE 18:51:31 79° ENE 18:56:44 10° NNW
STARLINK-1229 3.3 18:48:42 10° W 18:51:45 50° SSW 18:54:16 14° SE
STARLINK-1271 3.4 18:49:09 10° W 18:52:12 50° SSW 18:54:43 14° SE
STARLINK-1239 3.6 18:48:18 10° W 18:52:27 75° S 18:56:09 13° ESE
STARLINK-1270 3.4 18:49:37 10° W 18:52:39 49° SSW 18:55:09 14° SE
STARLINK-1154 3.4 18:50:04 10° W 18:53:06 49° SSW 18:55:34 14° SE
Cosmos 1603 3.8 18:47:50 10° SSW 18:53:28 86° WNW 18:59:08 10° NNE
STARLINK-1197 3.4 18:50:58 10° W 18:54:00 49° SSW 18:56:26 14° SE
STARLINK-1189 3.4 18:51:25 10° W 18:54:27 48° SSW 18:56:52 15° SE
Aureole 1 Rocket 4.2 18:47:52 10° S 18:54:52 52° ESE 19:00:21 10° NE
Cosmos 1892 4.5 18:52:09 10° NNE 18:54:53 18° ENE 18:57:00 13° E
STARLINK-1198 3.4 18:51:52 10° W 18:54:54 48° SSW 18:57:18 15° SE
STARLINK-1188 3.4 18:52:19 10° W 18:55:21 48° SSW 18:57:44 15° SE
Cosmos 1953 Rocket 3.7 18:51:25 10° NNW 18:55:54 82° W 19:00:24 10° S
STARLINK-1235 3.6 18:52:57 10° W 18:55:59 42° SSW 18:58:23 14° SE
STARLINK-1187 3.5 18:53:23 10° W 18:56:27 45° SSW 18:58:50 15° SE
Cosmos 2074 Rocket 4.5 18:51:02 10° NNW 18:57:16 67° W 19:03:29 10° S
STARLINK-1199 3.4 18:54:15 10° W 18:57:18 47° SSW 18:59:39 15° SE
STARLINK-1240 3.6 18:53:18 10° W 18:57:27 74° S 19:00:57 14° ESE
STARLINK-1191 3.4 18:54:43 10° W 18:57:46 47° SSW 19:00:06 15° SE
SJ-6B 3.4 18:53:59 10° S 18:58:05 64° WSW 19:02:13 10° NNW
STARLINK-1210 3.4 18:55:09 10° W 18:58:12 47° SSW 19:00:31 16° SE
STARLINK-1221 3.5 18:55:37 10° W 18:58:40 47° SSW 19:00:58 16° SE
STARLINK-1219 3.5 18:56:03 10° W 18:59:06 47° SSW 19:01:23 16° SE
ADEOS Rocket 4.4 18:53:03 10° N 18:59:16 45° WNW 19:04:52 10° SW
STARLINK-1222 3.5 18:56:31 10° W 18:59:33 46° SSW 19:01:49 16° SE
STARLINK-1211 3.5 18:56:58 10° W 19:00:00 46° SSW 19:02:15 16° SE
STARLINK-1214 3.5 18:57:25 10° W 19:00:27 46° SSW 19:02:41 16° SE
STARLINK-60 4.2 18:57:48 10° SSW 19:00:29 23° SSE 19:02:13 16° ESE
Cosmos 1606 Rocket 3.6 18:56:21 10° S 19:00:48 84° E 19:05:18 10° NNE
STARLINK-1245 3.5 18:57:55 10° W 19:00:56 45° SSW 19:03:07 16° SE
ATLAS 5 CENTAUR R/B 2.4 18:57:32 10° S 19:01:12 29° ESE 19:05:15 10° ENE
STARLINK-1238 3.5 18:58:19 10° W 19:01:21 45° SSW 19:03:34 16° SE
STARLINK-1205 3.5 18:59:16 10° W 19:02:17 45° SSW 19:04:25 17° SE
STARLINK-1216 3.7 18:58:17 10° W 19:02:25 72° SSW 19:05:45 15° ESE
STARLINK-1204 3.5 18:59:42 10° W 19:02:43 45° SSW 19:04:50 17° SE
Cosmos 1825 4.4 19:03:49 10° NE 19:04:52 11° ENE 19:05:54 10° ENE
Meteor 1-16 Rocket 4.3 18:59:59 10° SSW 19:05:27 85° WNW 19:11:07 10° NNE
Cosmos 1818 3.5 19:00:47 10° SW 19:06:12 75° SE 19:11:41 10° NE
Terra 3.7 19:03:35 10° E 19:06:24 17° NE 19:09:20 10° NNE
STARLINK-1237 3.7 19:03:15 10° W 19:07:23 70° SSW 19:10:31 17° ESE
Abrixas rocket 3.5 19:07:38 10° WSW 19:10:06 24° SSW 19:11:30 17° SSE
Cosmos 2058 3.8 19:08:34 10° N 19:12:15 31° ENE 19:14:35 18° ESE
STARLINK-1202 3.7 19:08:14 10° W 19:12:22 69° SSW 19:15:18 18° ESE
NOSS 3-4 (A) 4.4 19:05:59 10° NW 19:12:41 55° SW 19:20:02 10° SSE
NOSS 3-4 (C) 4.4 19:06:06 10° NW 19:12:47 55° SW 19:20:10 10° SSE
RESURS DK-1 3.8 19:11:11 10° NNW 19:14:46 27° NE 19:17:24 15° E
SPOT 1/Viking Rocket 4.4 19:11:59 16° ESE 19:15:35 35° ENE 19:20:18 10° N
Cosmos 1076 Rocket 4.2 19:15:46 10° N 19:19:47 37° ENE 19:22:14 20° SE
Cosmos 1300 3.2 19:17:23 13° SSE 19:20:32 39° E 19:24:08 10° NNE
MOS 1 Rocket 3.7 19:15:34 10° NNE 19:20:54 61° E 19:26:17 10° S
SL-4 R/B 2.1 19:17:49 10° SW 19:21:00 38° SSE 19:22:39 23° ESE
STARLINK-1246 3.7 19:18:12 10° W 19:22:19 65° SSW 19:24:53 22° ESE
STARLINK-1203 3.8 19:18:50 10° W 19:22:59 63° SSW 19:25:34 22° ESE
CZ-2C R/B 3.7 19:18:36 10° NNE 19:23:22 84° ESE 19:28:01 10° SSW
STARLINK-1201 3.8 19:20:50 10° W 19:23:55 38° SSW 19:25:27 23° SSE
NOSS 3-3 (A) 4.3 19:18:49 10° WSW 19:24:55 74° NW 19:31:57 10° NE
NOSS 3-3 (C) 4.3 19:18:55 10° WSW 19:25:01 74° NW 19:32:03 10° NE
Cosmos 1340 Rocket 2.7 19:21:06 10° S 19:25:09 77° ESE 19:29:12 10° NNE
STARLINK-1224 3.7 19:23:10 10° W 19:27:16 63° SSW 19:29:39 24° ESE
Cosmos 1763 Rocket 4.0 19:22:15 10° NNW 19:27:18 46° NE 19:30:27 21° ESE
H-2A R/B 3.8 19:23:09 10° SSW 19:27:45 32° W 19:32:17 10° NNW
STARLINK-1225 3.8 19:28:10 10° W 19:32:16 61° SSW 19:34:27 26° SE
SAR-Lupe-2 4.0 19:31:57 10° NNE 19:35:21 39° E 19:36:46 26° SSE
STARLINK-1230 3.8 19:33:09 10° W 19:37:14 58° SSW 19:39:15 28° SE
MetOp-B 4.1 19:33:00 16° SSE 19:37:18 77° ENE 19:42:41 10° NNW
Cosmos 1174 3.9 19:33:39 10° NW 19:37:32 78° NE 19:40:10 25° SE
Cosmos 1908 4.2 19:35:07 10° SSW 19:38:53 49° WNW 19:42:42 10° N
COSMOS 2406 4.5 19:39:01 20° ESE 19:39:14 20° E 19:43:15 10° NE
USA 234 3.9 19:34:28 10° ENE 19:40:08 30° SE 19:45:47 10° SSW
SeaSat 1 4.1 19:37:12 10° NNE 19:41:44 37° NW 19:46:14 10° WSW
STARLINK-1243 3.9 19:38:07 10° W 19:42:11 56° SSW 19:44:01 30° SE
Iridium 4 Rocket 3.3 19:39:04 10° N 19:43:12 47° E 19:44:57 29° SE
ATLAS 2AS CENTAUR R/B 4.0 19:37:47 10° NW 19:44:35 37° WSW 19:50:55 10° S
Cosmos-2242 4.5 19:44:33 20° E 19:44:38 20° E 19:47:50 10° NE
STARLINK-1236 3.9 19:43:05 10° W 19:47:09 54° SSW 19:48:47 32° SE
Cosmos 1943 4.2 19:44:07 10° SW 19:49:37 50° NW 19:55:11 10° NNE
CZ-4C R/B 3.3 19:44:44 10° NW 19:51:09 52° NNE 19:56:49 18° E
Cosmos 2341 Rocket 4.3 19:47:01 10° NNW 19:53:22 70° W 19:59:43 10° S
Cosmos 1140 Rocket 3.4 19:48:47 10° SSW 19:53:59 90° WNW 19:59:11 10° NNE
Cosmos 2369 4.3 19:49:49 10° NNW 19:55:17 46° NE 19:58:10 26° ESE
STARLINK-1269 4.0 19:53:03 10° W 19:57:04 50° SSW 19:58:20 36° SSE
DMSP B5D2-2 4.3 19:53:24 10° NNE 19:58:37 71° WNW 20:03:49 10° SSW
CZ-2C R/B 2.7 19:54:06 10° NNE 19:59:18 79° WNW 20:04:29 10° SSW
Spot 2 Rocket 3.5 19:56:54 22° SSE 20:00:18 83° WSW 20:05:27 10° NNW
Cosmos 1190 Rocket 4.2 19:55:10 10° SSW 20:00:28 74° WNW 20:05:47 10° NNE
COSMOS 2455 3.7 19:55:09 10° NW 20:00:50 44° WSW 20:05:11 17° S
Cosmos 2058 Rocket 4.0 19:56:28 10° SSW 20:00:52 51° WNW 20:05:17 10° N
Cosmos 1697 Rocket 3.1 19:55:47 10° NNW 20:01:19 50° NE 20:04:03 28° ESE
Landsat 7 3.7 19:58:57 29° SSE 20:01:26 79° ENE 20:06:13 10° NNW
Cosmos 1408 3.1 19:58:20 10° N 20:01:51 42° ENE 20:02:18 39° E
STARLINK-1200 4.1 19:58:01 10° W 20:02:01 47° SSW 20:03:07 37° SSE
Cosmos 841 Rocket 3.9 19:59:26 10° NNW 20:04:37 52° ENE 20:06:47 32° ESE
STARLINK-1192 4.1 20:03:01 10° W 20:06:59 45° SSW 20:07:55 38° SSE
CARTOSAT-1 3.8 20:06:16 38° ESE 20:07:34 54° ENE 20:11:48 10° N
Cosmos 2218 Rocket 4.0 20:01:33 10° NNW 20:07:47 83° W 20:12:18 20° S
IGS 5A 3.4 20:06:53 36° SSE 20:08:30 87° E 20:12:42 10° NNW
Iridium 2 3.6 20:07:49 29° S 20:09:41 85° W 20:13:32 10° N
Cosmos 1356 Rocket 4.2 20:10:36 34° E 20:10:36 34° E 20:14:26 10° NNE
Okean 3 Rocket 3.9 20:07:22 10° N 20:11:41 48° ENE 20:12:40 40° ESE
STARLINK-1244 4.1 20:07:59 10° W 20:11:56 43° SSW 20:12:41 39° S
ERBS 2.8 20:08:55 10° WNW 20:12:10 45° SW 20:12:22 44° SSW
Resurs 01 Rocket 3.0 20:08:29 10° SSW 20:12:26 35° W 20:16:32 10° NNW
Mayak 0.9 20:10:11 10° NE 20:11:12 13° ENE 20:11:12 13° ENE
Cosmos 468 Rocket 4.0 20:10:28 10° NNW 20:15:40 75° WSW 20:18:00 33° SSE
ATLAS CENTAUR R/B 1.7 20:12:00 10° NW 20:15:52 48° NE 20:16:45 40° ENE
BREEZE-M DEB (TANK) 3.3 20:13:41 10° WSW 20:15:11 21° SW 20:15:11 21° SW
STARLINK-1138 4.2 20:12:59 10° W 20:16:54 41° SSW 20:17:28 39° S
Cosmos 1766 Rocket 4.0 20:12:37 10° N 20:16:58 46° ENE 20:17:48 41° ESE
SL-16 R/B 4.0 20:14:15 10° NNW 20:18:43 23° NNE 20:22:22 13° ENE
Cosmos 1570 Rocket 4.0 20:14:31 10° NNW 20:19:56 76° ENE 20:21:55 40° SE
Meteor 2-12 Rocket 4.4 20:13:57 10° NNW 20:20:06 87° W 20:23:32 28° S
CZ-4B DEB 4.4 20:21:15 64° SSW 20:21:40 77° WSW 20:25:04 10° NNW
Cosmos 2360 Rocket 4.4 20:18:05 10° NNW 20:21:43 17° NNE 20:25:21 10° ENE
STARLINK-1143 4.3 20:17:58 10° W 20:21:51 39° SSW 20:22:14 38° SSW
STARLINK-1241 4.4 20:22:59 10° W 20:26:50 37° SSW 20:27:04 37° SSW
Meteor 2-3 Rocket 4.3 20:21:34 10° N 20:27:04 42° ENE 20:28:43 34° ESE
Cosmos 2322 Rocket 4.0 20:22:46 10° NNW 20:27:10 22° NNE 20:30:46 13° ENE
Cosmos 2181 Rocket 4.1 20:21:14 10° SSW 20:27:28 76° WNW 20:33:41 10° N
Cosmos 1656 3.7 20:22:59 10° NW 20:28:43 78° WSW 20:30:57 38° SSE
Cosmos 676 Rocket 4.3 20:23:58 10° SW 20:29:14 70° WNW 20:34:30 10° NNE
ERS-1 Rocket 2.9 20:27:20 39° SSE 20:29:15 88° WSW 20:34:19 10° NNW
Cosmos 1455 2.6 20:30:11 47° ENE 20:30:11 47° ENE 20:33:28 10° NNE
Cosmos 1980 Rocket 2.7 20:25:05 10° NNW 20:30:32 48° NE 20:32:34 34° E
Cosmos 1892 3.2 20:27:07 10° NNW 20:30:58 57° W 20:32:00 41° SSW
STARLINK-1239 4.5 20:27:56 10° W 20:31:45 35° SSW 20:31:48 35° SSW
Cosmos 1812 Rocket 3.6 20:29:45 30° SSW 20:31:53 75° WNW 20:36:14 10° N
SPOT 5 2.5 20:34:13 56° SSE 20:35:09 88° ENE 20:39:31 10° NNW
Cosmos 2366 rocket 4.5 20:30:59 10° NNW 20:36:58 57° W 20:41:05 21° SSW
Cosmos 1825 2.0 20:37:17 10° N 20:41:04 79° ENE 20:41:04 79° ENE
Cosmos 2344 4.3 20:32:20 10° NW 20:41:07 73° NE 20:48:33 26° ESE
Terra 1.7 20:42:27 56° SSE 20:43:26 80° ENE 20:48:15 10° NNW
ATLAS 5 CENTAUR R/B 2.1 20:41:09 10° WSW 20:45:28 62° NW 20:50:29 10° NE
Cosmos 2058 4.3 20:45:29 10° NNW 20:49:11 33° W 20:50:48 24° SW
Cosmos 2151 3.0 20:45:07 10° NNW 20:49:20 72° W 20:49:51 62° SSW
Cosmos 2360 4.2 20:45:38 10° NNW 20:51:22 76° ENE 20:52:50 51° SE
Nadezhda 3 Rocket 4.0 20:50:22 44° SSE 20:52:21 66° E 20:58:34 10° NNE
RESURS DK-1 2.6 20:49:00 10° NW 20:53:07 59° WSW 20:53:17 58° SW
SPOT 1/Viking Rocket 4.3 20:52:37 29° SSW 20:54:52 47° W 20:59:58 10° NNW
Cosmos 1741 Rocket 3.9 20:54:59 38° SSW 20:57:05 85° ESE 21:02:28 10° NNE
Cosmos 2278 3.6 20:51:58 10° NNW 20:57:41 79° ENE 20:58:59 54° SE
Cosmos 1408 Rocket 3.5 20:53:50 10° N 20:58:19 69° ENE 20:58:24 69° E
Cosmos 1743 Rocket 4.3 20:55:03 10° N 20:59:12 41° ENE 20:59:12 41° ENE
Cosmos 2208 Rocket 4.1 20:54:31 10° NNW 20:59:42 68° WSW 21:00:47 52° SSW
Thor Agena Rocket 4.5 20:55:13 10° NNE 20:59:03 31° ENE 20:59:03 31° ENE
SL-4 R/B 3.5 20:56:54 10° W 20:58:16 22° WSW 20:58:16 22° WSW
Cosmos 2082 Rocket 3.3 21:03:59 28° E 21:03:59 28° E 21:07:34 10° NE
Cosmos 1833 Rocket 2.8 21:13:43 53° ESE 21:13:43 53° ESE 21:18:55 10° NE
Cosmos 1821 Rocket 4.2 21:12:04 10° NNW 21:18:24 66° W 21:20:35 42° SSW
Cosmos 1814 Rocket 4.3 21:13:21 10° NNW 21:18:37 57° WSW 21:19:27 51° SW
Cosmos 540 Rocket 3.8 21:13:36 10° NNW 21:18:39 55° WSW 21:19:20 51° SW
BREEZE M DEB (TANK) 4.1 21:14:16 10° WSW 21:19:03 62° SSE 21:36:32 10° E
Cosmos 1633 4.2 21:16:42 10° N 21:18:46 27° NNE 21:18:46 27° NNE
Spot 4 4.1 21:20:22 53° ENE 21:20:26 53° ENE 21:25:08 10° N
Cosmos 2221 3.8 21:21:51 31° NE 21:21:51 31° NE 21:24:40 10° NNE
Meteor 1-27 4.5 21:21:10 52° E 21:21:20 52° E 21:27:00 10° NNE
Cosmos-2242 3.5 21:21:21 53° WSW 21:21:49 56° WNW 21:26:08 10° N
COSMOS 2406 3.1 21:21:00 46° SSW 21:22:48 90° WNW 21:28:34 10° NNE
Cosmos 1934 Rocket 3.9 21:16:57 10° N 21:23:16 89° W 21:24:38 58° S
USA 234 3.1 21:17:18 10° ENE 21:23:53 74° SSE 21:30:26 10° SW
Meteor 2-10 Rocket 3.8 21:23:20 45° SW 21:24:53 67° WNW 21:30:22 10° N
Cosmos 1842 Rocket 4.3 21:35:18 45° NE 21:35:18 45° NE 21:38:31 10° NNE
Cosmos 1605 Rocket 3.8 21:31:32 10° N 21:37:42 80° ENE 21:38:36 66° SE
Cosmos 2369 4.3 21:34:10 10° NW 21:39:30 44° WSW 21:40:06 42° SW
CZ-4C R/B 2.9 21:33:15 10° NW 21:40:11 71° SW 21:41:59 54° SSE
Cosmos 2084 3.9 21:37:22 10° NW 21:41:15 63° NNW 21:41:15 63° NNW
ASTEX 1 3.7 21:44:36 58° WSW 21:44:52 59° W 21:49:47 10° NNW
Cosmos 1697 Rocket 3.4 21:39:58 10° NW 21:45:13 39° WSW 21:45:47 38° WSW
Cosmos 1340 4.3 21:43:13 10° N 21:45:34 31° NNE 21:45:34 31° NNE
Sich 1 4.1 21:42:40 10° N 21:46:12 38° NE 21:46:12 38° NE
Mayak -0.6 21:44:31 10° NNE 21:47:47 53° N 21:47:47 53° N
Cosmos 1339 Rocket 4.4 21:53:44 68° SE 21:54:25 75° E 22:00:50 10° NNE
ALOS 2 3.3 21:55:17 47° NE 21:55:17 47° NE 21:58:52 10° N
ATLAS CENTAUR R/B 3.3 21:51:14 10° WNW 21:52:56 21° W 21:52:56 21° W
SL-16 R/B 2.2 21:58:11 10° NNW 22:03:53 69° NE 22:04:13 67° E
Cosmos 968 Rocket 4.4 22:06:28 39° ENE 22:06:28 39° ENE 22:10:12 10° NE
Cosmos 1455 4.5 22:05:04 19° WNW 22:05:39 19° WNW 22:08:30 10° NNW
Cosmos 1500 Rocket 4.4 22:01:54 10° NNW 22:05:19 46° NW 22:05:19 46° NW
Cosmos 2360 Rocket 3.1 22:01:58 10° NNW 22:07:18 41° NE 22:08:30 37° ENE
Cosmos 1805 Rocket 4.2 22:02:58 10° N 22:06:31 55° N 22:06:31 55° N
Cosmos 2322 Rocket 2.2 22:06:38 10° NNW 22:12:18 68° NE 22:12:34 67° ENE
Cosmos 1980 Rocket 2.9 22:09:16 10° NW 22:14:19 41° WSW 22:14:19 41° WSW
NOSS 2-1 (C) 4.1 22:14:25 10° NW 22:19:09 78° NE 22:19:11 78° NE
Terra 3.9 22:21:20 17° W 22:21:48 17° W 22:24:59 10° NW
Cosmos 2333 Rocket 3.8 22:17:22 10° NNW 22:22:16 29° NE 22:25:05 19° E
NOSS 2-1 (D) 4.1 22:18:38 10° NW 22:23:20 81° NNE 22:23:20 81° NNE
Cosmos 1633 Rocket 4.0 22:20:30 10° N 22:23:48 43° NNE 22:23:48 43° NNE
Meteor 2-2 Rocket 4.1 22:25:15 86° WNW 22:25:15 86° WNW 22:30:55 10° NNE
ATLAS 5 CENTAUR R/B 3.7 22:26:50 10° WNW 22:30:59 30° N 22:35:44 10° NE
Cosmos 2061 Rocket 4.2 22:25:16 10° N 22:31:28 60° ENE 22:32:00 58° E
Cosmos 1607 3.9 22:38:22 72° E 22:38:22 72° E 22:44:14 10° NE
Thor Agena Rocket 4.2 22:34:25 10° N 22:39:16 47° WNW 22:39:38 46° WNW
Helios 1A 4.1 22:40:49 42° NNW 22:40:49 42° NNW 22:43:40 10° NNW
Cosmos 1354 Rocket 4.4 22:47:21 56° NE 22:47:21 56° NE 22:51:36 10° NNE
Cosmos 2082 Rocket 2.5 22:45:47 57° W 22:46:26 61° NW 22:52:05 10° NNE
Cosmos 1459 Rocket 3.9 22:43:00 10° NNW 22:49:24 82° W 22:49:42 79° SW
SL-16 R/B 4.3 22:46:28 15° E 22:49:59 25° NE 22:54:53 10° N
Cosmos 1833 Rocket 3.8 22:55:21 28° W 22:57:35 39° NW 23:02:53 10° NNE
Cosmos 1864 Rocket 4.5 22:51:25 10° N 22:57:48 73° ENE 22:58:14 70° ESE
Cosmos 2221 4.1 22:58:41 29° WNW 22:58:41 29° WNW 23:02:08 10° N
Cosmos 2233 Rocket 4.4 22:52:31 10° N 22:58:40 51° ENE 22:59:27 48° E
Cosmos 1727 Rocket 4.1 22:58:39 61° WSW 22:59:16 65° WNW 23:05:36 10° N
Cosmos 1503 Rocket 4.2 23:02:42 68° N 23:02:42 68° N 23:07:17 10° NNE
Cosmos 2219 Rocket 3.1 23:00:27 10° NNW 23:05:47 42° NE 23:07:20 35° E
Cosmos 1725 Rocket 3.9 22:59:52 10° N 23:06:14 80° E 23:06:34 77° ESE
Cosmos 2016 Rocket 3.8 23:00:08 10° NNW 23:06:33 87° W 23:06:48 83° SSW
USA 234 3.4 23:00:26 10° ENE 23:06:57 72° N 23:13:28 10° W
Cosmos 1802 Rocket 3.9 23:01:40 10° NNW 23:07:53 74° W 23:07:59 74° WSW
Cosmos 2100 Rocket 4.2 23:06:46 10° NNW 23:12:49 55° W 23:12:57 55° W
Cosmos 44 4.2 23:14:59 39° NNE 23:14:59 39° NNE 23:17:54 10° NE
Helios 1B rocket 4.0 23:10:00 10° NNE 23:12:22 31° NE 23:12:22 31° NE
Cosmos 2237 4.2 23:10:33 10° NW 23:15:47 73° WNW 23:15:47 73° WNW
Cosmos 2123 Rocket 3.9 23:19:41 72° ESE 23:19:49 72° E 23:26:00 10° NNE
Cosmos 1680 Rocket 4.1 23:15:03 10° NNW 23:20:08 49° NE 23:20:30 48° ENE
SL-08 R/B 4.3 23:14:41 10° NNW 23:20:56 81° W 23:21:06 80° SW
Cosmos 2173 Rocket 4.3 23:15:57 10° NNW 23:21:49 51° W 23:21:49 51° W
Mayak 1.3 23:21:35 10° NNW 23:23:33 13° NW 23:24:21 13° WNW
Cosmos 1538 Rocket 4.4 23:18:42 10° NNW 23:23:02 57° NW 23:23:02 57° NW
Cosmos 2322 3.7 23:19:41 10° NNW 23:25:27 74° NE 23:25:36 73° ENE
COSMOS 2428 3.3 23:21:14 10° NNW 23:26:50 52° NE 23:28:04 44° E
CZ-4C R/B 4.3 23:22:35 10° WNW 23:27:10 22° WSW 23:27:10 22° WSW
Cosmos 2333 4.2 23:24:20 10° NNW 23:30:00 74° NE 23:30:02 74° ENE
SJ 16-02 3.6 23:37:59 17° E 23:37:59 17° E 23:39:57 10° NE
Resurs 1-4 Rocket 3.9 23:33:33 10° NE 23:37:20 19° E 23:37:53 19° E
Meteor 1-20 Rocket 4.3 23:32:17 10° NNW 23:37:48 72° WNW 23:37:48 72° WNW
MOS 1-B Rocket 4.3 23:39:28 10° NNE 23:45:29 66° WNW 23:46:30 58° WSW
SL-16 R/B 3.7 23:42:52 10° NW 23:46:05 24° W 23:46:05 24° W
Cosmos 2228 Rocket 3.9 23:50:00 50° NE 23:50:00 50° NE 23:53:38 10° NNE
SL-16 R/B 4.4 23:44:39 10° NNW 23:49:08 23° NNE 23:53:36 10° E
Cosmos 2360 Rocket 2.9 23:46:02 10° NW 23:50:15 43° WNW 23:50:15 43° WNW
